カタログに戻る

SL-12 DEB

LostHEO
NORAD 41684·DEBRIS·🇷🇺 Russia

打ち上げ Oct 26, 2007 から Baikonur Cosmodrome

Loading…

次のパス (今後24時間)

TLE

古いSource: Space-Track

元期: Mar 23, 2021, 05:00 UTC

1 41684U 07052R   21082.20872821  .00015048  00000-0  16253+0 0  9994
2 41684  63.9487 135.6841 5282084  26.9700 352.8279  4.66554616110958

AllMySatでSL-12 DEBをリアルタイム追跡

Download on the App Store